Location: Waco, TX
(31.5480°N, 97.1670°W)
Time: 17:42:03
(UTC-05:00)

ISS - Pass Details

Date: 22 September 2018
Orbit: 403 x 408 km, 51.6° (Epoch: 23 September)

Event Time Altitude Azimuth Distance (km) Brightness Sun altitude
Rises 19:29:01 0° 209° (SSW) 2,315 0.4 -1.7°
Reaches altitude 10° 19:31:10 10° 201° (SSW) 1,458 -0.7 -2.1°
Maximum altitude 19:34:15 39° 131° (SE) 627 -3.2 -2.8°
Drops below altitude 10° 19:37:20 10° 61° (ENE) 1,465 -1.5 -3.4°
Sets 19:39:30 0° 53° (NE) 2,328 -0.4 -3.9°
